User: anonymous
Location: Natural Bridges National Monument
(37.6093°N, 109.9767°W)
Time: 05:15:50
(UTC-06:00)
Language:

Cosmos 1727 Rocket - Orbit

View from above orbital plane
View from above orbital plane
View from above satellite
View from above satellite

Ground track
Ground track

The orbit data is extracted from the following two-line orbital elements,

1 16511U 86008B   14243.09637803 -.00000006  00000-0 -21846-4 0  5625
2 16511 082.9414 257.1183 0023086 252.9563 166.2617 13.75770250435875
Epoch (UTC): 31 August 2014 02:18:47
Eccentricity: 0.0023086
inclination: 82.9414°
perigee height: 962 km
apogee height: 996 km
right ascension of ascending node: 257.1183°
argument of perigee: 252.9563°
revolutions per day: 13.75770250
mean anomaly at epoch: 166.2617°
orbit number at epoch: 43587

The dashed part of the orbit path shows where the satellite is in the earth's shadow,  

DLR